Location: Huesca
(42.1318°N, 0.4078°W)
Time: 11:00:26
(UTC+02:00)

Vanguard 1 Rocket - All Passes

Search period start: 15 July 2024 00:00
Search period end: 25 July 2024 00:00
Orbit: 650 x 4219 km, 34.3° (Epoch: 14 July)

Date Brightness Start Highest point End Pass type
(mag) Time Alt. Az. Time Alt. Az. Time Alt. Az.
15 Jul - 01:54:05 10° W 02:01:17 46° S 02:14:49 10° ESE visible
15 Jul - 04:19:10 10° W 04:28:23 29° SSW 04:43:18 10° SSE visible
15 Jul - 22:20:05 10° SW 22:24:22 32° SSE 22:30:36 10° E visible
16 Jul - 00:42:59 10° WSW 00:48:58 48° S 00:59:53 10° ESE visible
16 Jul - 03:07:05 10° W 03:15:10 35° SSW 03:29:20 10° SE visible
16 Jul - 05:35:25 10° WSW 05:42:58 16° SSW 05:52:53 10° S visible
16 Jul - 21:09:51 10° SSW 21:13:05 19° SSE 21:16:58 10° ESE daylight
16 Jul - 23:32:01 10° WSW 23:37:04 44° S 23:45:27 10° ESE visible
17 Jul - 01:55:34 10° W 02:02:26 40° SSW 02:14:51 10° SE visible
17 Jul - 04:21:20 10° WSW 04:29:26 22° SSW 04:41:35 10° SSE visible
17 Jul - 22:21:13 10° SW 22:25:29 35° SSE 22:31:39 10° ESE visible
18 Jul - 00:44:23 10° WSW 00:50:09 43° S 01:00:21 10° ESE visible
18 Jul - 03:08:52 10° WSW 03:16:18 28° SSW 03:28:31 10° SSE visible
18 Jul - 05:42:16 10° SW 05:44:00 10° SW 05:45:50 10° SSW visible
18 Jul - 21:10:35 10° SSW 21:14:08 23° SSE 21:18:23 10° ESE daylight
18 Jul - 23:33:21 10° WSW 23:38:15 42° S 23:46:13 10° ESE visible
19 Jul - 01:57:09 10° WSW 02:03:36 33° SSW 02:14:41 10° SE visible
19 Jul - 04:24:14 10° WSW 04:30:32 16° SSW 04:39:00 10° S visible
19 Jul - 20:00:33 10° S 20:02:49 14° SSE 20:05:07 10° ESE daylight
19 Jul - 22:22:24 10° WSW 22:26:39 37° S 22:32:40 10° ESE visible
20 Jul - 00:45:51 10° WSW 00:51:20 37° S 01:00:41 10° SE visible
20 Jul - 03:10:58 10° WSW 03:17:27 21° SSW 03:27:14 10° SSE visible
20 Jul - 21:11:31 10° SW 21:15:15 27° SSE 21:19:40 10° ESE daylight
20 Jul - 23:34:44 10° WSW 23:39:28 39° S 23:46:55 10° ESE visible
21 Jul - 01:58:54 10° WSW 02:04:48 26° SSW 02:14:15 10° SSE visible
21 Jul - 04:30:31 10° SW 04:31:41 10° SSW 04:32:55 10° SSW visible
21 Jul - 20:00:46 10° SSW 20:03:53 18° SSE 20:07:00 10° ESE daylight
21 Jul - 22:23:40 10° WSW 22:27:51 37° S 22:33:38 10° ESE visible
22 Jul - 00:47:24 10° WSW 00:52:33 31° SSW 01:00:51 10° SE visible
22 Jul - 03:13:45 10° WSW 03:18:39 15° SSW 03:25:10 10° S night (unlit)
22 Jul - 18:50:50 10° S 18:52:23 11° SSE 18:53:51 10° SE daylight
22 Jul - 21:12:32 10° SW 21:16:25 30° S 21:20:53 10° ESE daylight
22 Jul - 23:36:10 10° WSW 23:40:41 34° S 23:47:32 10° SE visible
23 Jul - 02:00:58 10° WSW 02:06:01 20° SSW 02:13:23 10° SSE visible
23 Jul - 20:01:23 10° SW 20:05:01 23° SSE 20:08:34 10° ESE daylight
23 Jul - 22:24:57 10° WSW 22:29:03 35° S 22:34:32 10° ESE visible
24 Jul - 00:49:07 10° WSW 00:53:47 24° SSW 01:00:46 10° SE visible
24 Jul - 18:50:18 10° SSW 18:53:31 16° SSE 18:56:21 10° ESE daylight
24 Jul - 21:13:40 10° WSW 21:17:36 32° S 21:22:02 10° ESE daylight
24 Jul - 23:37:40 10° WSW 23:41:54 28° S 23:47:59 10° SE visible
